contact:dominique.lefevre@mio.osupytheas.fr, maurice.libes@osupytheas.fr, didier.mallarino@osupytheas.fr
Project:EMSO http://www.emso-fr.org/EMSO-France
Depth: 2436.0 m
Title:EMSO Ligure Ouest : Data MII capteur MICROCAT
DateTime_Computer,Latitude,Longitude,Temperature,Conductivity,Pressure,DateTime_Instrument
DateTime_Computer,Latitude,Longitude,degC,S m-1,dbar,DateTime_Instrument
2020-08-26T00:01:39Z,42.805,6.029,13.2988,4.60016,2470.171,2020-8-26T02:02:29Z
2020-08-26T00:04:42Z,42.805,6.029,13.2985,4.60024,2470.18,2020-8-26T02:05:32Z
2020-08-26T00:07:45Z,42.805,6.029,13.2993,4.60049,2470.194,2020-8-26T02:08:35Z
2020-08-26T00:10:49Z,42.805,6.029,13.2993,4.60040,2470.171,2020-8-26T02:11:39Z
2020-08-26T00:13:52Z,42.805,6.029,13.2994,4.60040,2470.171,2020-8-26T02:14:42Z
2020-08-26T00:16:56Z,42.805,6.029,13.3002,4.60061,2470.133,2020-8-26T02:17:46Z
2020-08-26T00:19:59Z,42.805,6.029,13.3006,4.60063,2470.18,2020-8-26T02:20:49Z
2020-08-26T00:23:02Z,42.805,6.029,13.2989,4.60035,2470.171,2020-8-26T02:23:52Z
2020-08-26T00:26:06Z,42.805,6.029,13.2991,4.60027,2470.194,2020-8-26T02:26:56Z
2020-08-26T00:29:09Z,42.805,6.029,13.2991,4.60047,2470.194,2020-8-26T02:29:59Z
2020-08-26T00:32:12Z,42.805,6.029,13.2990,4.60081,2470.171,2020-8-26T02:33:02Z
2020-08-26T00:35:15Z,42.805,6.029,13.2987,4.60030,2470.171,2020-8-26T02:36:05Z
2020-08-26T00:38:19Z,42.805,6.029,13.3003,4.60046,2470.147,2020-8-26T02:39:09Z
2020-08-26T00:41:22Z,42.805,6.029,13.2991,4.60021,2470.147,2020-8-26T02:42:12Z
2020-08-26T00:44:25Z,42.805,6.029,13.2990,4.60024,2470.156,2020-8-26T02:45:15Z
2020-08-26T00:47:28Z,42.805,6.029,13.2996,4.60040,2470.147,2020-8-26T02:48:18Z
2020-08-26T00:50:31Z,42.805,6.029,13.2993,4.60026,2470.133,2020-8-26T02:51:21Z
2020-08-26T00:53:35Z,42.805,6.029,13.2998,4.60034,2470.156,2020-8-26T02:54:25Z
2020-08-26T00:56:38Z,42.805,6.029,13.3000,4.60054,2470.171,2020-8-26T02:57:28Z
2020-08-26T00:59:41Z,42.805,6.029,13.2988,4.60023,2470.166,2020-8-26T03:00:31Z
2020-08-26T01:02:44Z,42.805,6.029,13.2997,4.60031,2470.11,2020-8-26T03:03:34Z
2020-08-26T01:05:48Z,42.805,6.029,13.2986,4.60026,2470.171,2020-8-26T03:06:38Z
2020-08-26T01:08:51Z,42.805,6.029,13.2998,4.60039,2470.194,2020-8-26T03:09:41Z
2020-08-26T01:11:54Z,42.805,6.029,13.2989,4.60019,2470.18,2020-8-26T03:12:45Z
2020-08-26T01:14:58Z,42.805,6.029,13.2990,4.60019,2470.147,2020-8-26T03:15:48Z
2020-08-26T01:18:01Z,42.805,6.029,13.2995,4.60033,2470.18,2020-8-26T03:18:51Z
2020-08-26T01:21:04Z,42.805,6.029,13.2999,4.60044,2470.156,2020-8-26T03:21:55Z
2020-08-26T01:24:08Z,42.805,6.029,13.3009,4.60033,2470.156,2020-8-26T03:24:58Z
2020-08-26T01:27:11Z,42.805,6.029,13.2991,4.60021,2470.156,2020-8-26T03:28:01Z
2020-08-26T01:30:14Z,42.805,6.029,13.3003,4.60030,2470.119,2020-8-26T03:31:04Z
2020-08-26T01:33:17Z,42.805,6.029,13.2991,4.60033,2470.194,2020-8-26T03:34:07Z
2020-08-26T01:36:21Z,42.805,6.029,13.3012,4.60026,2470.156,2020-8-26T03:37:11Z
2020-08-26T01:39:24Z,42.805,6.029,13.2997,4.60031,2470.147,2020-8-26T03:40:14Z
2020-08-26T01:42:27Z,42.805,6.029,13.2990,4.60009,2470.147,2020-8-26T03:43:17Z
2020-08-26T01:45:30Z,42.805,6.029,13.2986,4.60021,2470.147,2020-8-26T03:46:20Z
2020-08-26T01:48:34Z,42.805,6.029,13.2993,4.60041,2470.171,2020-8-26T03:49:24Z
2020-08-26T01:51:37Z,42.805,6.029,13.2997,4.60045,2470.156,2020-8-26T03:52:27Z
2020-08-26T01:54:40Z,42.805,6.029,13.3004,4.60031,2470.147,2020-8-26T03:55:30Z
2020-08-26T01:57:43Z,42.805,6.029,13.2991,4.60014,2470.156,2020-8-26T03:58:34Z
2020-08-26T02:00:47Z,42.805,6.029,13.2993,4.60039,2470.133,2020-8-26T04:01:37Z
2020-08-26T02:03:50Z,42.805,6.029,13.2987,4.60034,2470.11,2020-8-26T04:04:40Z
2020-08-26T02:06:53Z,42.805,6.029,13.2987,4.60032,2470.133,2020-8-26T04:07:43Z
2020-08-26T02:09:57Z,42.805,6.029,13.2997,4.60035,2470.18,2020-8-26T04:10:47Z
2020-08-26T02:13:00Z,42.805,6.029,13.2988,4.60031,2470.156,2020-8-26T04:13:50Z
2020-08-26T02:16:03Z,42.805,6.029,13.2998,4.60037,2470.133,2020-8-26T04:16:53Z
2020-08-26T02:19:07Z,42.805,6.029,13.2990,4.60045,2470.133,2020-8-26T04:19:57Z
2020-08-26T02:22:10Z,42.805,6.029,13.2993,4.60038,2470.156,2020-8-26T04:23:00Z
2020-08-26T02:25:13Z,42.805,6.029,13.3000,4.60049,2470.147,2020-8-26T04:26:03Z
2020-08-26T02:28:16Z,42.805,6.029,13.2990,4.60034,2470.171,2020-8-26T04:29:06Z
2020-08-26T02:31:20Z,42.805,6.029,13.2995,4.60029,2470.147,2020-8-26T04:32:10Z
2020-08-26T02:34:23Z,42.805,6.029,13.2984,4.60028,2470.147,2020-8-26T04:35:13Z
2020-08-26T02:37:26Z,42.805,6.029,13.3003,4.60010,2470.133,2020-8-26T04:38:16Z
2020-08-26T02:40:30Z,42.805,6.029,13.2983,4.60043,2470.147,2020-8-26T04:41:20Z
2020-08-26T02:43:33Z,42.805,6.029,13.3005,4.60028,2470.124,2020-8-26T04:44:23Z
2020-08-26T02:46:36Z,42.805,6.029,13.2983,4.60007,2470.18,2020-8-26T04:47:26Z
2020-08-26T02:49:39Z,42.805,6.029,13.2983,4.60033,2470.124,2020-8-26T04:50:29Z
2020-08-26T02:52:43Z,42.805,6.029,13.2998,4.60021,2470.147,2020-8-26T04:53:33Z
2020-08-26T02:55:46Z,42.805,6.029,13.2984,4.60021,2470.11,2020-8-26T04:56:36Z
2020-08-26T02:58:49Z,42.805,6.029,13.2992,4.60048,2470.147,2020-8-26T04:59:39Z
2020-08-26T03:01:52Z,42.805,6.029,13.2983,4.60049,2470.133,2020-8-26T05:02:42Z
2020-08-26T03:04:55Z,42.805,6.029,13.2997,4.60047,2470.133,2020-8-26T05:05:45Z
2020-08-26T03:07:59Z,42.805,6.029,13.2991,4.60014,2470.133,2020-8-26T05:08:49Z
2020-08-26T03:11:02Z,42.805,6.029,13.2990,4.60024,2470.147,2020-8-26T05:11:52Z
2020-08-26T03:14:05Z,42.805,6.029,13.2983,4.60014,2470.147,2020-8-26T05:14:55Z
2020-08-26T03:17:09Z,42.805,6.029,13.2997,4.60010,2470.11,2020-8-26T05:17:59Z
2020-08-26T03:20:12Z,42.805,6.029,13.2987,4.60020,2470.124,2020-8-26T05:21:02Z
2020-08-26T03:23:15Z,42.805,6.029,13.2987,4.60027,2470.124,2020-8-26T05:24:05Z
2020-08-26T03:26:18Z,42.805,6.029,13.2990,4.60013,2470.133,2020-8-26T05:27:08Z
2020-08-26T03:29:21Z,42.805,6.029,13.2998,4.60021,2470.147,2020-8-26T05:30:12Z
2020-08-26T03:32:25Z,42.805,6.029,13.2998,4.60032,2470.133,2020-8-26T05:33:15Z
2020-08-26T03:35:28Z,42.805,6.029,13.2993,4.60029,2470.124,2020-8-26T05:36:18Z
2020-08-26T03:38:31Z,42.805,6.029,13.2993,4.60020,2470.11,2020-8-26T05:39:21Z
2020-08-26T03:41:34Z,42.805,6.029,13.2987,4.60054,2470.124,2020-8-26T05:42:24Z
2020-08-26T03:44:38Z,42.805,6.029,13.2992,4.60033,2470.1,2020-8-26T05:45:28Z
2020-08-26T03:47:41Z,42.805,6.029,13.2992,4.60040,2470.147,2020-8-26T05:48:31Z
2020-08-26T03:50:44Z,42.805,6.029,13.2996,4.60046,2470.11,2020-8-26T05:51:34Z
2020-08-26T03:53:47Z,42.805,6.029,13.2996,4.60039,2470.133,2020-8-26T05:54:38Z
2020-08-26T03:56:51Z,42.805,6.029,13.2986,4.60026,2470.11,2020-8-26T05:57:41Z
2020-08-26T03:59:54Z,42.805,6.029,13.2990,4.60012,2470.124,2020-8-26T06:00:44Z
2020-08-26T04:02:57Z,42.805,6.029,13.3006,4.60072,2470.124,2020-8-26T06:03:47Z
2020-08-26T04:06:00Z,42.805,6.029,13.2993,4.60049,2470.124,2020-8-26T06:06:50Z
2020-08-26T04:09:04Z,42.805,6.029,13.2988,4.60034,2470.11,2020-8-26T06:09:54Z
2020-08-26T04:12:07Z,42.805,6.029,13.2995,4.60032,2470.11,2020-8-26T06:12:57Z
2020-08-26T04:15:10Z,42.805,6.029,13.2995,4.60019,2470.133,2020-8-26T06:16:00Z
2020-08-26T04:18:14Z,42.805,6.029,13.2987,4.60017,2470.11,2020-8-26T06:19:04Z
2020-08-26T04:21:17Z,42.805,6.029,13.2990,4.60026,2470.171,2020-8-26T06:22:07Z
2020-08-26T04:24:20Z,42.805,6.029,13.2982,4.60034,2470.133,2020-8-26T06:25:10Z
2020-08-26T04:27:23Z,42.805,6.029,13.2983,4.60050,2470.124,2020-8-26T06:28:13Z
2020-08-26T04:30:26Z,42.805,6.029,13.2988,4.60022,2470.11,2020-8-26T06:31:16Z
2020-08-26T04:33:30Z,42.805,6.029,13.2993,4.60034,2470.087,2020-8-26T06:34:20Z
2020-08-26T04:36:33Z,42.805,6.029,13.2998,4.60047,2470.11,2020-8-26T06:37:23Z
2020-08-26T04:39:36Z,42.805,6.029,13.2990,4.60033,2470.087,2020-8-26T06:40:26Z
2020-08-26T04:42:40Z,42.805,6.029,13.2995,4.60031,2470.124,2020-8-26T06:43:30Z
2020-08-26T04:45:43Z,42.805,6.029,13.2996,4.60027,2470.077,2020-8-26T06:46:33Z
2020-08-26T04:48:46Z,42.805,6.029,13.2992,4.60030,2470.087,2020-8-26T06:49:36Z
2020-08-26T04:51:50Z,42.805,6.029,13.2983,4.60038,2470.124,2020-8-26T06:52:40Z
2020-08-26T04:54:53Z,42.805,6.029,13.2994,4.60034,2470.1,2020-8-26T06:55:43Z
2020-08-26T04:57:56Z,42.805,6.029,13.2991,4.60041,2470.087,2020-8-26T06:58:46Z
2020-08-26T05:00:59Z,42.805,6.029,13.2986,4.60052,2470.087,2020-8-26T07:01:49Z
2020-08-26T05:04:02Z,42.805,6.029,13.2991,4.60057,2470.087,2020-8-26T07:04:52Z
2020-08-26T05:07:06Z,42.805,6.029,13.3003,4.60034,2470.11,2020-8-26T07:07:56Z
2020-08-26T05:10:09Z,42.805,6.029,13.2987,4.60037,2470.124,2020-8-26T07:10:59Z
2020-08-26T05:13:12Z,42.805,6.029,13.2990,4.60065,2470.147,2020-8-26T07:14:02Z
2020-08-26T05:16:15Z,42.805,6.029,13.2996,4.60082,2470.1,2020-8-26T07:17:05Z
2020-08-26T05:19:19Z,42.805,6.029,13.2987,4.60084,2470.087,2020-8-26T07:20:09Z
2020-08-26T05:22:22Z,42.805,6.029,13.2991,4.60046,2470.1,2020-8-26T07:23:12Z
2020-08-26T05:25:25Z,42.805,6.029,13.3007,4.60063,2470.087,2020-8-26T07:26:15Z
2020-08-26T05:28:28Z,42.805,6.029,13.2990,4.60067,2470.087,2020-8-26T07:29:18Z
2020-08-26T05:31:32Z,42.805,6.029,13.2993,4.60064,2470.087,2020-8-26T07:32:22Z
2020-08-26T05:34:35Z,42.805,6.029,13.3000,4.60046,2470.1,2020-8-26T07:35:25Z
2020-08-26T05:53:08Z,42.805,6.029,13.2998,4.60057,2470.1,2020-8-26T07:53:59Z
2020-08-26T05:56:12Z,42.805,6.029,13.2993,4.60035,2470.1,2020-8-26T07:57:02Z
2020-08-26T05:59:15Z,42.805,6.029,13.2993,4.60046,2470.087,2020-8-26T08:00:05Z
2020-08-26T06:02:19Z,42.805,6.029,13.3001,4.60070,2470.124,2020-8-26T08:03:09Z
2020-08-26T06:05:22Z,42.805,6.029,13.2996,4.60061,2470.087,2020-8-26T08:06:12Z
2020-08-26T06:08:25Z,42.805,6.029,13.2998,4.60068,2470.1,2020-8-26T08:09:15Z
2020-08-26T06:11:28Z,42.805,6.029,13.2996,4.60046,2470.087,2020-8-26T08:12:18Z
2020-08-26T06:14:32Z,42.805,6.029,13.2993,4.60045,2470.087,2020-8-26T08:15:22Z
2020-08-26T06:17:35Z,42.805,6.029,13.2988,4.60059,2470.087,2020-8-26T08:18:25Z
2020-08-26T06:20:38Z,42.805,6.029,13.2989,4.60026,2470.087,2020-8-26T08:21:28Z
2020-08-26T06:23:42Z,42.805,6.029,13.2991,4.60040,2470.077,2020-8-26T08:24:32Z
2020-08-26T06:26:45Z,42.805,6.029,13.2990,4.60057,2470.077,2020-8-26T08:27:35Z
2020-08-26T06:29:48Z,42.805,6.029,13.3000,4.60059,2470.063,2020-8-26T08:30:38Z
2020-08-26T06:32:51Z,42.805,6.029,13.2997,4.60044,2470.063,2020-8-26T08:33:41Z
2020-08-26T06:35:54Z,42.805,6.029,13.2991,4.60051,2470.053,2020-8-26T08:36:45Z
2020-08-26T06:38:58Z,42.805,6.029,13.3000,4.60057,2470.1,2020-8-26T08:39:48Z
2020-08-26T06:42:01Z,42.805,6.029,13.2989,4.60052,2470.087,2020-8-26T08:42:51Z
2020-08-26T06:45:04Z,42.805,6.029,13.3004,4.60052,2470.053,2020-8-26T08:45:55Z
2020-08-26T06:48:08Z,42.805,6.029,13.2998,4.60052,2470.053,2020-8-26T08:48:58Z
2020-08-26T06:51:11Z,42.805,6.029,13.2993,4.60064,2470.053,2020-8-26T08:52:01Z
2020-08-26T06:54:14Z,42.805,6.029,13.3011,4.60041,2470.04,2020-8-26T08:55:05Z
2020-08-26T06:57:18Z,42.805,6.029,13.2993,4.60041,2470.077,2020-8-26T08:58:08Z
2020-08-26T07:00:21Z,42.805,6.029,13.2988,4.60046,2470.053,2020-8-26T09:01:11Z
2020-08-26T07:03:24Z,42.805,6.029,13.3004,4.60062,2470.077,2020-8-26T09:04:14Z
2020-08-26T07:06:27Z,42.805,6.029,13.3003,4.60071,2470.1,2020-8-26T09:07:17Z
2020-08-26T07:09:31Z,42.805,6.029,13.2994,4.60041,2470.04,2020-8-26T09:10:21Z
2020-08-26T07:12:34Z,42.805,6.029,13.3028,4.60076,2470.04,2020-8-26T09:13:24Z
2020-08-26T07:15:37Z,42.805,6.029,13.3026,4.60038,2470.077,2020-8-26T09:16:27Z
2020-08-26T07:18:40Z,42.805,6.029,13.3015,4.60093,2470.063,2020-8-26T09:19:31Z
2020-08-26T07:21:44Z,42.805,6.029,13.2993,4.60055,2470.063,2020-8-26T09:22:34Z
2020-08-26T07:24:47Z,42.805,6.029,13.3016,4.60058,2470.04,2020-8-26T09:25:37Z
2020-08-26T07:27:50Z,42.805,6.029,13.3011,4.60036,2470.077,2020-8-26T09:28:40Z
2020-08-26T07:30:53Z,42.805,6.029,13.2996,4.60061,2470.04,2020-8-26T09:31:43Z
2020-08-26T07:33:57Z,42.805,6.029,13.2995,4.60086,2470.053,2020-8-26T09:34:47Z
2020-08-26T07:37:00Z,42.805,6.029,13.3011,4.60039,2470.077,2020-8-26T09:37:50Z
2020-08-26T07:40:03Z,42.805,6.029,13.3014,4.60053,2470.063,2020-8-26T09:40:53Z
2020-08-26T07:43:06Z,42.805,6.029,13.3009,4.60019,2470.04,2020-8-26T09:43:56Z
2020-08-26T07:46:10Z,42.805,6.029,13.3011,4.60054,2470.063,2020-8-26T09:47:00Z
2020-08-26T07:49:13Z,42.805,6.029,13.3003,4.60030,2470.04,2020-8-26T09:50:03Z
2020-08-26T07:52:16Z,42.805,6.029,13.3004,4.60036,2470.077,2020-8-26T09:53:06Z
2020-08-26T07:55:19Z,42.805,6.029,13.3000,4.60069,2470.077,2020-8-26T09:56:09Z
2020-08-26T07:58:23Z,42.805,6.029,13.3006,4.60062,2470.04,2020-8-26T09:59:13Z
2020-08-26T08:01:26Z,42.805,6.029,13.3014,4.60069,2470.077,2020-8-26T10:02:16Z
2020-08-26T08:04:29Z,42.805,6.029,13.2997,4.60060,2470.077,2020-8-26T10:05:19Z
2020-08-26T08:07:32Z,42.805,6.029,13.3001,4.60060,2470.077,2020-8-26T10:08:23Z
2020-08-26T08:10:36Z,42.805,6.029,13.3011,4.60042,2470.087,2020-8-26T10:11:26Z
2020-08-26T08:13:39Z,42.805,6.029,13.3015,4.59999,2470.063,2020-8-26T10:14:29Z
2020-08-26T08:16:42Z,42.805,6.029,13.3024,4.60010,2470.077,2020-8-26T10:17:32Z
2020-08-26T08:19:45Z,42.805,6.029,13.3013,4.60026,2470.063,2020-8-26T10:20:36Z
2020-08-26T08:22:49Z,42.805,6.029,13.3021,4.60016,2470.087,2020-8-26T10:23:39Z
2020-08-26T08:25:52Z,42.805,6.029,13.3015,4.60011,2470.087,2020-8-26T10:26:42Z
2020-08-26T08:28:55Z,42.805,6.029,13.3026,4.60040,2470.04,2020-8-26T10:29:45Z
2020-08-26T08:31:58Z,42.805,6.029,13.2990,4.60061,2470.1,2020-8-26T10:32:49Z
2020-08-26T08:35:02Z,42.805,6.029,13.2991,4.60008,2470.04,2020-8-26T10:35:52Z
2020-08-26T08:38:05Z,42.805,6.029,13.2976,4.59994,2470.04,2020-8-26T10:38:55Z
2020-08-26T08:41:08Z,42.805,6.029,13.2973,4.59982,2470.1,2020-8-26T10:41:58Z
2020-08-26T08:44:12Z,42.805,6.029,13.2974,4.59983,2470.077,2020-8-26T10:45:02Z
2020-08-26T08:47:15Z,42.805,6.029,13.2987,4.60016,2470.077,2020-8-26T10:48:05Z
2020-08-26T08:50:18Z,42.805,6.029,13.3025,4.59992,2470.087,2020-8-26T10:51:08Z
2020-08-26T08:53:21Z,42.805,6.029,13.2997,4.60032,2470.1,2020-8-26T10:54:11Z
2020-08-26T08:56:25Z,42.805,6.029,13.2980,4.59989,2470.087,2020-8-26T10:57:15Z
2020-08-26T08:59:28Z,42.805,6.029,13.2974,4.59988,2470.087,2020-8-26T11:00:18Z
2020-08-26T09:02:31Z,42.805,6.029,13.2974,4.59981,2470.077,2020-8-26T11:03:21Z
2020-08-26T09:05:34Z,42.805,6.029,13.2974,4.59986,2470.1,2020-8-26T11:06:24Z
2020-08-26T09:08:38Z,42.805,6.029,13.2971,4.59981,2470.077,2020-8-26T11:09:28Z
2020-08-26T09:11:41Z,42.805,6.029,13.2973,4.59991,2470.1,2020-8-26T11:12:31Z
2020-08-26T09:14:44Z,42.805,6.029,13.2982,4.59991,2470.087,2020-8-26T11:15:34Z
2020-08-26T09:17:47Z,42.805,6.029,13.2989,4.59981,2470.133,2020-8-26T11:18:37Z
2020-08-26T09:20:50Z,42.805,6.029,13.2988,4.59999,2470.087,2020-8-26T11:21:41Z
2020-08-26T09:23:54Z,42.805,6.029,13.2982,4.60014,2470.1,2020-8-26T11:24:44Z
2020-08-26T09:26:57Z,42.805,6.029,13.3014,4.60011,2470.11,2020-8-26T11:27:47Z
2020-08-26T09:30:00Z,42.805,6.029,13.3005,4.59999,2470.063,2020-8-26T11:30:50Z
2020-08-26T09:33:03Z,42.805,6.029,13.3021,4.60057,2470.063,2020-8-26T11:33:54Z
2020-08-26T09:36:07Z,42.805,6.029,13.2981,4.59992,2470.087,2020-8-26T11:36:57Z
2020-08-26T09:39:10Z,42.805,6.029,13.2996,4.60000,2470.087,2020-8-26T11:40:00Z
2020-08-26T09:42:13Z,42.805,6.029,13.3005,4.60050,2470.124,2020-8-26T11:43:03Z
2020-08-26T09:45:17Z,42.805,6.029,13.3006,4.60015,2470.11,2020-8-26T11:46:07Z
2020-08-26T09:48:20Z,42.805,6.029,13.3016,4.60058,2470.124,2020-8-26T11:49:10Z
2020-08-26T09:51:23Z,42.805,6.029,13.3021,4.60019,2470.11,2020-8-26T11:52:13Z
2020-08-26T09:54:26Z,42.805,6.029,13.3012,4.60002,2470.11,2020-8-26T11:55:16Z
2020-08-26T09:57:30Z,42.805,6.029,13.3009,4.60013,2470.133,2020-8-26T11:58:20Z
2020-08-26T10:00:33Z,42.805,6.029,13.2996,4.60032,2470.1,2020-8-26T12:01:23Z
2020-08-26T10:03:36Z,42.805,6.029,13.3000,4.60062,2470.156,2020-8-26T12:04:26Z
2020-08-26T10:06:39Z,42.805,6.029,13.2999,4.60029,2470.1,2020-8-26T12:07:29Z
2020-08-26T10:09:43Z,42.805,6.029,13.3002,4.60049,2470.124,2020-8-26T12:10:33Z
2020-08-26T10:12:46Z,42.805,6.029,13.3023,4.60076,2470.156,2020-8-26T12:13:36Z
2020-08-26T10:15:49Z,42.805,6.029,13.3022,4.60055,2470.124,2020-8-26T12:16:39Z
2020-08-26T10:18:52Z,42.805,6.029,13.2999,4.60039,2470.124,2020-8-26T12:19:42Z
2020-08-26T10:21:56Z,42.805,6.029,13.2997,4.60061,2470.147,2020-8-26T12:22:46Z
2020-08-26T10:24:59Z,42.805,6.029,13.3005,4.60037,2470.096,2020-8-26T12:25:49Z
2020-08-26T10:28:02Z,42.805,6.029,13.2999,4.60043,2470.147,2020-8-26T12:28:53Z
2020-08-26T10:31:06Z,42.805,6.029,13.2992,4.60046,2470.147,2020-8-26T12:31:56Z
2020-08-26T10:34:09Z,42.805,6.029,13.3003,4.60047,2470.147,2020-8-26T12:34:59Z
2020-08-26T10:37:12Z,42.805,6.029,13.3006,4.60051,2470.11,2020-8-26T12:38:02Z
2020-08-26T10:40:16Z,42.805,6.029,13.3015,4.60067,2470.133,2020-8-26T12:41:06Z
2020-08-26T10:43:19Z,42.805,6.029,13.3012,4.60062,2470.133,2020-8-26T12:44:09Z
2020-08-26T10:46:22Z,42.805,6.029,13.3002,4.60041,2470.133,2020-8-26T12:47:12Z
2020-08-26T10:49:25Z,42.805,6.029,13.3010,4.60049,2470.147,2020-8-26T12:50:16Z
2020-08-26T10:52:29Z,42.805,6.029,13.3011,4.60044,2470.156,2020-8-26T12:53:19Z
2020-08-26T10:55:32Z,42.805,6.029,13.2997,4.60062,2470.133,2020-8-26T12:56:22Z
2020-08-26T10:58:35Z,42.805,6.029,13.2995,4.60062,2470.171,2020-8-26T12:59:25Z
2020-08-26T11:01:39Z,42.805,6.029,13.3006,4.60057,2470.156,2020-8-26T13:02:29Z
2020-08-26T11:04:42Z,42.805,6.029,13.3004,4.60044,2470.124,2020-8-26T13:05:32Z
2020-08-26T11:07:45Z,42.805,6.029,13.3012,4.60049,2470.147,2020-8-26T13:08:35Z
2020-08-26T11:10:48Z,42.805,6.029,13.3011,4.60038,2470.133,2020-8-26T13:11:38Z
2020-08-26T11:13:51Z,42.805,6.029,13.3011,4.60025,2470.156,2020-8-26T13:14:42Z
2020-08-26T11:16:55Z,42.805,6.029,13.3001,4.60049,2470.156,2020-8-26T13:17:45Z
2020-08-26T11:19:58Z,42.805,6.029,13.2995,4.60072,2470.194,2020-8-26T13:20:48Z
2020-08-26T11:23:01Z,42.805,6.029,13.3014,4.60046,2470.133,2020-8-26T13:23:51Z
2020-08-26T11:26:04Z,42.805,6.029,13.2998,4.60064,2470.147,2020-8-26T13:26:55Z
2020-08-26T11:29:08Z,42.805,6.029,13.3024,4.60054,2470.171,2020-8-26T13:29:58Z
2020-08-26T11:32:11Z,42.805,6.029,13.3000,4.60058,2470.18,2020-8-26T13:33:01Z
2020-08-26T11:35:14Z,42.805,6.029,13.3024,4.60043,2470.156,2020-8-26T13:36:04Z
2020-08-26T11:38:17Z,42.805,6.029,13.3008,4.60051,2470.194,2020-8-26T13:39:08Z
2020-08-26T11:41:21Z,42.805,6.029,13.3021,4.59995,2470.194,2020-8-26T13:42:11Z
2020-08-26T11:44:24Z,42.805,6.029,13.3015,4.60036,2470.18,2020-8-26T13:45:14Z
2020-08-26T11:47:27Z,42.805,6.029,13.3016,4.60039,2470.156,2020-8-26T13:48:17Z
2020-08-26T11:50:31Z,42.805,6.029,13.3005,4.60000,2470.133,2020-8-26T13:51:21Z
2020-08-26T11:53:34Z,42.805,6.029,13.3015,4.60007,2470.156,2020-8-26T13:54:24Z
2020-08-26T11:56:37Z,42.805,6.029,13.3019,4.60026,2470.156,2020-8-26T13:57:27Z
2020-08-26T11:59:40Z,42.805,6.029,13.2996,4.60026,2470.217,2020-8-26T14:00:30Z
2020-08-26T12:02:43Z,42.805,6.029,13.3016,4.60014,2470.194,2020-8-26T14:03:33Z
2020-08-26T12:05:47Z,42.805,6.029,13.3066,4.60017,2470.171,2020-8-26T14:06:37Z
2020-08-26T12:08:50Z,42.805,6.029,13.2975,4.59998,2470.194,2020-8-26T14:09:40Z
2020-08-26T12:11:53Z,42.805,6.029,13.2979,4.59994,2470.194,2020-8-26T14:12:43Z
2020-08-26T12:14:56Z,42.805,6.029,13.2987,4.59993,2470.217,2020-8-26T14:15:46Z
2020-08-26T12:18:00Z,42.805,6.029,13.3013,4.60010,2470.203,2020-8-26T14:18:50Z
2020-08-26T12:21:03Z,42.805,6.029,13.3011,4.60009,2470.217,2020-8-26T14:21:53Z
2020-08-26T12:24:06Z,42.805,6.029,13.3016,4.59994,2470.18,2020-8-26T14:24:56Z
2020-08-26T12:27:09Z,42.805,6.029,13.2993,4.59997,2470.18,2020-8-26T14:28:00Z
2020-08-26T12:30:13Z,42.805,6.029,13.3014,4.60026,2470.171,2020-8-26T14:31:03Z
2020-08-26T12:33:16Z,42.805,6.029,13.3005,4.60014,2470.171,2020-8-26T14:34:06Z
2020-08-26T12:36:19Z,42.805,6.029,13.3009,4.60035,2470.194,2020-8-26T14:37:09Z
2020-08-26T12:39:23Z,42.805,6.029,13.3011,4.60032,2470.156,2020-8-26T14:40:13Z
2020-08-26T12:42:26Z,42.805,6.029,13.3015,4.60057,2470.171,2020-8-26T14:43:16Z
2020-08-26T12:45:29Z,42.805,6.029,13.3022,4.60022,2470.194,2020-8-26T14:46:19Z
2020-08-26T12:48:32Z,42.805,6.029,13.3024,4.60038,2470.203,2020-8-26T14:49:22Z
2020-08-26T12:51:36Z,42.805,6.029,13.3027,4.60003,2470.18,2020-8-26T14:52:26Z
2020-08-26T12:54:39Z,42.805,6.029,13.3031,4.60006,2470.194,2020-8-26T14:55:29Z
2020-08-26T12:57:42Z,42.805,6.029,13.2980,4.60084,2470.156,2020-8-26T14:58:32Z
2020-08-26T13:00:45Z,42.805,6.029,13.2993,4.60006,2470.18,2020-8-26T15:01:35Z
2020-08-26T13:03:49Z,42.805,6.029,13.2977,4.59995,2470.194,2020-8-26T15:04:39Z
2020-08-26T13:06:52Z,42.805,6.029,13.2983,4.59986,2470.18,2020-8-26T15:07:42Z
2020-08-26T13:09:55Z,42.805,6.029,13.2993,4.59991,2470.143,2020-8-26T15:10:45Z
2020-08-26T13:12:58Z,42.805,6.029,13.2974,4.59991,2470.194,2020-8-26T15:13:48Z
2020-08-26T13:16:02Z,42.805,6.029,13.2976,4.60006,2470.18,2020-8-26T15:16:52Z
2020-08-26T13:19:05Z,42.805,6.029,13.2974,4.59984,2470.156,2020-8-26T15:19:55Z
2020-08-26T13:22:08Z,42.805,6.029,13.2972,4.59984,2470.18,2020-8-26T15:22:58Z
2020-08-26T13:25:11Z,42.805,6.029,13.2979,4.59985,2470.18,2020-8-26T15:26:02Z
2020-08-26T13:28:15Z,42.805,6.029,13.2976,4.59985,2470.18,2020-8-26T15:29:05Z
2020-08-26T13:31:18Z,42.805,6.029,13.2972,4.59986,2470.171,2020-8-26T15:32:08Z
2020-08-26T13:34:21Z,42.805,6.029,13.2976,4.60000,2470.194,2020-8-26T15:35:11Z
2020-08-26T13:37:25Z,42.805,6.029,13.2976,4.59994,2470.18,2020-8-26T15:38:15Z
2020-08-26T13:40:28Z,42.805,6.029,13.2975,4.59986,2470.156,2020-8-26T15:41:18Z
2020-08-26T13:43:31Z,42.805,6.029,13.2979,4.60013,2470.194,2020-8-26T15:44:21Z
2020-08-26T13:46:34Z,42.805,6.029,13.2976,4.59984,2470.194,2020-8-26T15:47:24Z
2020-08-26T13:49:38Z,42.805,6.029,13.2974,4.59989,2470.194,2020-8-26T15:50:28Z
2020-08-26T13:52:41Z,42.805,6.029,13.2974,4.59988,2470.171,2020-8-26T15:53:31Z
2020-08-26T13:55:44Z,42.805,6.029,13.2977,4.59986,2470.18,2020-8-26T15:56:34Z
2020-08-26T13:58:47Z,42.805,6.029,13.2982,4.60006,2470.18,2020-8-26T15:59:37Z
2020-08-26T14:01:51Z,42.805,6.029,13.3019,4.60062,2470.203,2020-8-26T16:02:41Z
2020-08-26T14:04:54Z,42.805,6.029,13.3000,4.60020,2470.156,2020-8-26T16:05:44Z
2020-08-26T14:07:57Z,42.805,6.029,13.3020,4.60008,2470.194,2020-8-26T16:08:47Z
2020-08-26T14:11:01Z,42.805,6.029,13.3001,4.60034,2470.217,2020-8-26T16:11:51Z
2020-08-26T14:14:04Z,42.805,6.029,13.3030,4.60024,2470.18,2020-8-26T16:14:54Z
2020-08-26T14:17:07Z,42.805,6.029,13.3019,4.60010,2470.156,2020-8-26T16:17:57Z
2020-08-26T14:20:11Z,42.805,6.029,13.3035,4.60013,2470.217,2020-8-26T16:21:01Z
2020-08-26T14:23:14Z,42.805,6.029,13.3023,4.60020,2470.171,2020-8-26T16:24:04Z
2020-08-26T14:26:17Z,42.805,6.029,13.3014,4.60009,2470.18,2020-8-26T16:27:07Z
2020-08-26T14:29:20Z,42.805,6.029,13.3027,4.60023,2470.171,2020-8-26T16:30:10Z
2020-08-26T14:32:23Z,42.805,6.029,13.3029,4.60011,2470.18,2020-8-26T16:33:14Z
2020-08-26T14:35:27Z,42.805,6.029,13.3018,4.60026,2470.119,2020-8-26T16:36:17Z
2020-08-26T14:38:30Z,42.805,6.029,13.3023,4.59995,2470.18,2020-8-26T16:39:20Z
2020-08-26T14:41:33Z,42.805,6.029,13.3059,4.60021,2470.18,2020-8-26T16:42:23Z
2020-08-26T14:44:37Z,42.805,6.029,13.3029,4.60007,2470.171,2020-8-26T16:45:27Z
2020-08-26T14:47:40Z,42.805,6.029,13.3003,4.59994,2470.156,2020-8-26T16:48:30Z
2020-08-26T14:50:43Z,42.805,6.029,13.2982,4.60015,2470.133,2020-8-26T16:51:33Z
2020-08-26T14:53:47Z,42.805,6.029,13.2992,4.60004,2470.194,2020-8-26T16:54:37Z
2020-08-26T14:56:50Z,42.805,6.029,13.3008,4.60027,2470.194,2020-8-26T16:57:40Z
2020-08-26T14:59:53Z,42.805,6.029,13.3010,4.59996,2470.156,2020-8-26T17:00:43Z
2020-08-26T15:02:56Z,42.805,6.029,13.3025,4.60010,2470.18,2020-8-26T17:03:46Z
2020-08-26T15:06:00Z,42.805,6.029,13.3000,4.60016,2470.156,2020-8-26T17:06:50Z
2020-08-26T15:09:03Z,42.805,6.029,13.3021,4.59996,2470.156,2020-8-26T17:09:53Z
2020-08-26T15:12:06Z,42.805,6.029,13.3019,4.59999,2470.156,2020-8-26T17:12:56Z
2020-08-26T15:15:09Z,42.805,6.029,13.3016,4.60001,2470.171,2020-8-26T17:15:59Z
2020-08-26T15:18:12Z,42.805,6.029,13.2987,4.60020,2470.171,2020-8-26T17:19:03Z
2020-08-26T15:21:16Z,42.805,6.029,13.2983,4.59996,2470.171,2020-8-26T17:22:06Z
2020-08-26T15:24:19Z,42.805,6.029,13.2975,4.59996,2470.156,2020-8-26T17:25:09Z
2020-08-26T15:27:22Z,42.805,6.029,13.3012,4.59999,2470.156,2020-8-26T17:28:12Z
2020-08-26T15:30:26Z,42.805,6.029,13.2976,4.60001,2470.18,2020-8-26T17:31:16Z